This demonstration page uses our WeatherBlox Daily Observations layout. Learn more.

Left ArrowRight Arrow

Hourly Observations for June 25, 2022

Temp ( °F °C ) Dew Point ( °F °C ) Humidity (%) Winds ( mph kmh ) Pressure ( in mb ) Visibility ( mi km ) Precip ( " mm )
12:51 am 00:51 Clear 75 23.9 60 15.6 60 60 Calm 29.85 1011 10 16 0.00 0.00
1:51 am 01:51 Mostly Cloudy 75 23.9 60 15.6 60 60 ESE 9 15 29.81 1010 10 16 0.00 0.00
2:51 am 02:51 Mostly Cloudy 75 23.9 60 15.6 60 60 W 10 17 29.81 1010 10 16 0.00 0.00
3:51 am 03:51 Mostly Clear 74 23.3 60 15.6 62 62 W 9 15 29.83 1010 10 16 0.00 0.00
4:51 am 04:51 Clear 73 22.8 61 16.1 66 66 WNW 8 13 29.85 1011 10 16 0.00 0.00
5:51 am 05:51 Partly Cloudy 72 22.2 61 16.1 68 68 W 5 7 29.88 1012 10 16 0.00 0.00
6:51 am 06:51 Partly Cloudy 73 22.8 61 16.1 66 66 SE 5 7 29.90 1013 10 16 0.00 0.00
7:51 am 07:51 Mostly Sunny 75 23.9 60 15.6 60 60 SSE 7 11 29.91 1013 10 16 0.00 0.00
8:51 am 08:51 Sunny 77 25 60 15.6 56 56 SE 6 9 29.91 1013 10 16 0.00 0.00
9:51 am 09:51 Mostly Sunny 79 26.1 61 16.1 54 54 S 5 7 29.91 1013 10 16 0.00 0.00
10:51 am 10:51 Sunny 81 27.2 59 15 47 47 Calm 29.90 1013 10 16 0.00 0.00
11:51 am 11:51 Sunny 83 28.3 57 13.9 41 41 W 6 9 29.89 1012 10 16 0.00 0.00
12:51 pm 12:51 Sunny 87 30.6 55 12.8 34 34 VRB 3 6 29.86 1011 10 16 0.00 0.00
1:51 pm 13:51 Sunny 90 32.2 53 11.7 28 28 VRB 6 9 29.83 1010 10 16 0.00 0.00
2:51 pm 14:51 Sunny 92 33.3 51 10.6 25 25 SSE 8 13 29.79 1009 10 16 0.00 0.00
3:51 pm 15:51 Sunny 93 33.9 50 10 23 23 S 7 11 29.77 1008 10 16 0.00 0.00
4:51 pm 16:51 Sunny 93 33.9 48 8.9 21 21 SSW 9 15 29.76 1008 10 16 0.00 0.00
5:51 pm 17:51 Sunny 94 34.4 49 9.4 21 21 SW 5 7 29.76 1008 10 16 0.00 0.00
6:15 pm 18:15 Sunny with Nearby Thunderstorms 93 33.9 48 8.9 21 21 SSE 7 11 29.66 1004 10 16 0.00 0.00
6:30 pm 18:30 Partly Cloudy 92 33.3 49 9.4 23 23 undefined N/A 29.68 1005 10 16 0.00 0.00
6:51 pm 18:51 Partly Cloudy 87 30.6 55 12.8 34 34 NE 18 30 29.80 1009 10 16 0.00 0.00
7:51 pm 19:51 Cloudy 83 28.3 56 13.3 40 40 NNE 14 22 29.83 1010 10 16 0.00 0.00
8:51 pm 20:51 Mostly Cloudy 86 30 54 12.2 33 33 NNW 8 13 29.85 1011 10 16 0.00 0.00
9:51 pm 21:51 Partly Cloudy 82 27.8 56 13.3 41 41 ENE 12 19 29.89 1012 10 16 0.00 0.00
10:51 pm 22:51 Clear 81 27.2 56 13.3 42 42 NE 10 17 29.89 1012 10 16 0.00 0.00
11:51 pm 23:51 Clear 82 27.8 55 12.8 40 40 Calm 29.90 1013 10 16 0.00 0.00

Powered by AerisWeather